Theta_e
316 312 310 306 299 296 293 297 298 300 301 304 302 301 301 302 299 298 314 323 331 335 341 350 351 353 353 353 353 353 353 353 352 351 351 350 350 349 347 346 344 341 340 340 336 335 333 336 337
313 312 307 299 293 289 292 295 298 300 302 303 302 303 303 302 306 311 317 325 334 336 344 349 348 352 353 353 353 353 353 353 352 350 350 350 349 349 347 345 343 340 338 337 335 332 329 330 333
312 307 303 294 289 289 292 296 298 300 301 303 303 305 304 306 309 312 318 327 335 339 345 347 347 352 353 353 353 353 352 352 351 350 348 349 346 345 344 343 340 339 337 334 332 330 327 326 329
308 304 298 293 293 295 296 296 298 298 301 302 303 302 305 310 310 315 319 330 335 339 344 345 347 352 353 352 352 352 352 351 351 351 347 344 343 341 339 340 338 337 336 332 330 328 326 324 327
301 298 293 291 293 295 295 298 298 299 300 301 302 302 303 309 317 321 323 332 334 338 342 345 346 349 352 351 352 350 350 349 349 349 348 345 341 338 336 335 338 335 333 331 329 326 324 323 325
299 294 290 289 292 295 296 297 298 298 298 300 301 301 305 308 314 320 327 330 333 336 340 343 339 343 346 349 350 349 349 348 347 346 347 345 342 338 336 335 335 333 332 329 328 324 322 321 323
296 290 288 289 290 293 296 297 297 297 297 300 303 300 305 305 308 320 320 325 331 334 337 340 343 342 336 341 343 346 347 346 346 346 345 343 340 337 336 334 332 330 329 328 326 323 321 319 318
296 293 290 289 290 293 297 298 298 298 299 300 303 298 301 302 309 318 319 319 324 329 333 336 339 341 344 346 335 338 341 342 342 341 338 335 334 333 331 329 331 329 328 327 326 323 321 317 315
297 288 286 289 290 293 297 297 298 299 298 299 300 300 299 303 308 309 311 311 315 317 322 331 335 339 342 343 338 334 336 337 337 336 331 330 336 332 329 326 329 330 327 326 325 323 318 307 303
293 287 289 291 293 294 296 296 297 297 296 297 298 299 298 298 298 298 298 298 299 300 302 309 326 336 338 340 341 341 341 343 343 341 337 334 333 331 326 324 326 327 325 327 325 322 314 304 301
294 290 291 293 295 296 296 295 297 296 295 297 296 294 296 296 296 295 296 296 297 298 301 303 305 324 335 337 339 338 337 338 339 340 338 335 331 327 325 325 323 322 318 321 320 316 313 308 303
292 295 295 297 297 296 295 297 295 296 295 295 295 295 294 293 293 293 294 295 296 297 300 301 304 308 331 335 337 337 336 334 336 334 332 329 327 325 324 322 321 320 319 317 314 313 312 309 303
294 294 295 296 295 295 295 295 294 291 294 295 294 293 292 291 292 293 293 295 295 296 298 300 303 308 324 332 334 335 334 334 332 330 329 329 327 324 322 321 320 319 317 316 314 311 311 309 305
293 293 294 295 295 294 294 293 294 292 294 293 292 290 290 290 290 291 292 292 293 295 297 300 308 312 324 328 329 329 329 330 329 329 328 327 326 327 322 320 318 317 315 313 311 309 311 309 305
293 291 292 293 293 293 294 291 289 292 293 290 289 289 289 289 290 289 290 291 292 294 296 300 310 321 324 324 322 319 316 314 313 315 316 323 324 323 321 319 317 315 313 310 308 306 306 305 303
290 289 288 293 292 293 293 289 290 292 292 288 287 287 288 288 289 289 290 291 292 293 295 300 311 314 311 308 307 306 305 305 305 307 308 310 316 319 318 315 313 312 310 309 308 306 306 304 301
287 285 286 290 293 292 291 290 288 291 289 286 286 286 287 288 288 289 290 290 291 292 294 298 302 305 305 304 302 301 300 299 299 300 300 302 306 311 310 309 309 311 309 307 307 305 302 302 301
285 284 285 286 290 291 289 290 287 288 287 285 285 286 286 287 287 288 289 290 291 292 293 295 298 300 302 301 300 298 296 295 294 293 294 296 297 301 304 304 303 304 303 302 302 301 301 298 297
287 285 285 287 290 289 289 289 287 287 286 285 285 285 286 286 288 288 288 288 289 290 291 292 294 295 297 297 297 294 291 291 289 289 290 290 291 294 295 295 296 299 297 298 298 299 298 299 298
286 284 284 287 289 289 288 287 286 286 285 285 285 285 285 285 286 286 286 286 286 287 288 289 290 291 293 293 292 292 289 287 288 288 288 288 289 289 289 290 290 292 293 293 293 296 297 298 296
284 284 284 286 287 287 285 285 283 284 285 285 286 286 285 285 284 284 284 284 284 284 285 286 287 288 288 290 289 288 287 287 286 286 286 287 288 288 287 288 288 288 288 288 289 291 292 293 296
283 288 287 286 285 282 285 280 283 283 283 284 284 284 284 284 284 283 283 283 283 283 284 285 285 286 286 287 286 285 283 282 283 284 286 286 287 286 287 287 287 287 287 286 287 287 289 291 289
287 288 287 286 284 282 282 280 282 282 281 282 283 283 283 284 283 282 282 283 283 283 283 284 285 285 285 285 285 284 283 284 284 284 285 285 286 286 286 286 286 286 286 286 286 286 287 287 286
288 287 285 283 281 277 282 282 282 280 283 283 283 283 284 283 283 282 283 282 282 282 283 283 284 284 284 284 284 284 283 283 284 284 284 284 284 285 285 285 285 285 285 285 285 285 285 285 285
286 284 279 277 276 278 280 279 283 285 284 285 284 284 284 283 282 282 281 281 281 281 282 283 283 283 284 284 284 284 283 283 283 283 283 283 283 283 283 284 284 284 284 284 285 284 284 285 283
284 284 279 273 274 277 280 278 284 284 284 286 286 285 284 282 282 281 281 281 281 281 281 282 283 282 283 284 284 284 284 284 284 284 283 283 283 283 283 283 283 283 283 283 283 283 282 283 283
284 282 284 277 276 274 280 282 284 283 282 284 284 283 282 282 282 282 282 281 281 281 281 282 282 282 283 283 283 283 283 283 283 283 283 283 283 283 282 282 281 282 282 282 282 281 281 281 281
285 287 281 279 271 269 277 279 282 280 281 281 282 282 282 283 282 282 282 281 281 281 282 282 282 282 282 282 282 282 282 282 282 282 282 282 282 281 281 281 281 280 281 280 280 280 280 279 280
283 283 282 282 278 274 271 277 283 284 284 281 283 284 283 282 282 282 282 282 282 282 282 282 282 281 281 282 282 282 282 281 281 281 281 281 281 280 280 280 280 279 279 279 279 279 279 278 279
284 284 283 279 276 276 276 279 284 285 284 284 283 284 284 284 283 282 282 281 281 281 281 281 281 281 282 282 282 281 281 281 281 280 280 280 279 279 278 278 278 278 278 278 277 277 277 277 277
Wind_Speed
3 3 2 5 5 5 1 0 1 1 1 1 4 3 3 2 3 2 1 6 1 9 12 10 13 13 12 11 11 10 10 11 12 12 11 11 10 12 14 15 12 11 10 11 11 12 12 11 11
2 1 4 3 6 4 3 3 2 1 1 1 2 1 2 0 2 3 1 5 4 9 11 10 11 13 14 12 13 11 10 11 11 11 10 13 14 12 11 13 13 11 10 10 11 11 11 11 10
2 4 4 5 4 4 3 3 3 2 2 1 1 0 3 1 1 1 3 7 6 9 9 8 9 12 12 14 14 13 11 12 11 11 9 11 11 12 13 13 11 10 10 10 10 11 11 10 9
2 4 4 5 3 1 1 3 2 4 1 2 0 2 2 1 3 2 2 6 6 7 9 9 9 9 10 11 11 12 10 10 11 10 11 13 12 11 9 9 9 10 10 9 10 11 11 11 9
4 3 5 4 1 1 3 4 3 1 1 2 2 1 1 3 3 3 3 4 6 6 6 7 9 9 12 11 10 10 9 8 9 9 11 15 14 9 7 5 4 6 8 8 10 10 10 10 10
5 3 5 2 2 2 4 2 2 1 0 2 2 1 1 4 4 4 3 2 2 4 4 5 6 6 8 12 13 12 9 8 8 7 8 11 14 11 9 8 6 7 6 7 9 10 10 11 10
7 5 4 4 2 3 2 3 3 1 2 1 1 2 0 5 7 4 5 5 4 3 2 2 4 5 4 5 10 11 10 8 7 6 5 10 12 11 11 9 7 5 4 6 8 9 10 11 11
5 5 4 3 3 3 1 1 1 2 0 5 1 2 2 5 7 4 6 7 6 4 3 1 2 4 4 4 4 7 9 8 6 5 7 10 11 10 10 10 6 5 5 6 7 8 9 10 10
3 5 1 3 6 3 2 4 0 2 2 4 4 5 6 10 9 8 6 7 6 7 7 4 3 4 4 5 2 3 5 6 6 5 8 9 6 7 7 9 7 6 5 5 6 8 9 10 9
5 4 6 4 4 3 1 1 2 1 5 4 3 8 12 10 12 12 11 9 9 12 12 8 7 6 4 3 4 3 2 2 2 4 7 4 6 5 3 6 8 8 6 5 6 9 9 7 4
2 4 3 2 4 1 1 2 1 1 2 2 4 5 12 13 13 12 10 7 8 10 7 10 8 8 5 3 2 2 2 2 2 5 7 6 4 3 3 3 2 3 4 2 3 3 4 5 4
1 1 3 2 2 1 2 1 2 1 3 7 8 6 6 13 12 11 11 11 12 12 11 11 9 7 6 3 3 3 3 2 1 3 3 4 3 3 3 3 3 3 2 3 2 2 3 4 5
2 2 2 3 5 4 2 2 0 6 5 6 9 12 12 11 11 10 9 8 10 11 12 12 11 6 6 4 3 2 2 1 2 2 1 3 5 4 3 2 2 1 3 2 2 3 3 4 4
3 2 5 6 4 3 4 2 5 3 4 10 11 11 11 12 12 11 14 13 13 12 13 13 11 3 6 3 5 4 4 5 4 4 2 2 2 2 3 3 2 2 3 3 2 2 2 3 3
2 4 6 3 2 3 7 4 4 3 6 10 10 9 10 11 12 12 11 11 13 12 12 13 11 5 8 9 9 9 9 9 9 8 12 9 4 3 2 2 3 3 3 5 4 3 3 3 3
2 4 3 2 2 2 3 3 1 7 6 7 7 6 8 11 11 10 11 11 12 12 13 12 11 14 16 15 11 10 10 10 9 9 9 13 11 9 6 6 5 4 4 3 3 3 2 2 3
5 3 4 8 1 2 2 3 1 5 7 6 5 6 7 8 11 11 11 11 12 11 12 12 13 14 15 15 12 13 14 11 10 9 10 14 13 12 10 7 7 5 5 6 3 4 3 3 4
7 4 4 5 0 2 2 4 5 4 7 7 6 6 7 8 10 10 11 11 10 10 11 11 10 12 12 11 11 10 11 11 10 10 11 13 11 14 10 8 9 7 7 6 4 4 3 3 4
6 5 5 3 2 1 6 5 3 4 6 6 6 6 6 8 7 8 10 11 11 13 14 14 12 11 6 5 6 8 9 8 11 11 14 14 13 13 12 10 10 8 9 10 9 4 4 4 7
4 5 6 4 3 4 4 6 2 3 2 3 5 5 5 4 7 9 10 10 11 10 11 13 13 13 11 7 6 6 8 9 8 9 13 13 13 14 12 12 11 12 10 13 13 11 4 5 7
5 7 5 7 1 2 1 6 3 2 4 4 3 3 4 5 5 6 9 10 9 11 10 11 12 12 10 9 8 7 7 7 8 9 10 12 13 13 14 13 11 11 10 9 11 10 12 6 5
6 9 7 5 4 5 2 6 5 5 5 4 5 4 4 4 3 4 5 6 7 7 7 11 11 12 10 10 12 14 11 11 6 8 7 9 12 13 13 12 11 10 7 9 8 8 9 7 8
6 6 7 4 4 2 3 1 5 5 7 7 8 7 6 5 5 4 4 4 5 6 8 8 11 12 11 11 13 11 13 8 7 7 9 10 9 11 11 11 10 10 7 8 9 9 9 7 5
9 7 6 5 3 1 6 6 4 7 7 9 7 9 10 8 6 5 3 3 5 5 6 7 11 11 10 11 11 13 13 9 8 8 7 6 6 7 10 9 9 8 8 8 7 7 8 7 6
1 6 2 2 1 6 0 2 8 6 6 15 20 15 11 8 7 6 5 5 4 5 5 6 9 11 9 10 11 11 11 11 11 8 6 7 6 5 9 9 9 7 8 8 7 7 8 6 7
8 7 7 8 5 3 1 7 7 2 1 3 12 14 11 10 9 8 8 6 6 6 5 6 8 9 7 9 9 8 9 6 6 7 6 6 5 5 6 7 6 7 7 7 6 5 5 6 6
6 6 3 8 3 3 5 5 2 1 1 6 13 12 13 12 11 11 7 6 6 6 6 7 7 6 6 6 6 7 7 8 7 7 5 4 3 5 4 4 5 5 5 5 6 5 6 6 6
5 7 4 3 2 5 5 5 7 7 11 7 12 17 15 13 11 9 8 8 6 5 5 6 6 7 6 6 4 6 6 6 6 5 5 4 4 5 5 6 7 7 6 6 7 6 7 7 7
4 3 4 5 4 6 2 6 6 8 12 18 16 16 16 14 13 12 10 8 8 6 6 6 6 6 5 5 5 4 4 4 4 5 5 6 6 7 8 9 10 10 11 11 10 10 11 12 12
3 8 9 7 6 3 3 8 3 2 10 14 15 16 13 13 14 12 11 10 9 9 8 8 7 6 5 5 5 5 4 4 6 6 7 8 9 9 9 9 10 10 10 11 11 12 12 13 14
Wind_Direction
6 19 71 43 61 64 8 211 284 266 270 206 114 140 160 159 155 181 253 190 227 166 172 180 152 158 155 148 139 137 134 131 126 122 123 125 122 117 113 101 84 68 57 54 48 46 42 42 50
13 119 46 81 81 69 287 272 237 241 298 90 112 100 59 219 232 283 59 168 155 161 169 174 163 164 158 152 146 147 148 141 136 130 124 109 87 97 100 97 86 71 61 53 45 42 38 35 38
111 39 80 86 104 148 177 238 268 309 296 104 121 19 163 263 349 327 360 161 144 157 167 171 168 168 171 164 162 157 158 152 148 140 119 109 94 65 63 71 82 72 58 48 46 42 37 35 33
72 15 47 78 113 195 145 293 250 334 22 46 22 75 308 333 327 310 325 152 148 160 165 170 172 176 170 159 161 152 165 159 151 143 132 98 81 79 73 69 89 75 55 49 47 43 37 34 32
35 56 59 80 271 242 256 276 311 21 31 325 341 316 352 26 351 20 126 148 152 164 172 180 177 177 165 163 158 159 170 165 161 161 139 128 125 113 81 83 103 57 45 45 48 44 42 37 35
44 84 69 164 248 275 263 278 279 43 66 301 56 43 42 340 9 14 48 74 90 156 170 176 189 189 181 178 166 167 177 181 183 184 164 145 136 122 101 78 61 59 43 46 49 44 45 42 37
106 79 167 165 233 303 204 326 135 137 323 21 156 76 70 31 350 33 37 40 45 74 129 192 205 221 225 207 176 173 173 180 186 187 169 118 123 115 101 82 68 68 45 63 62 50 46 43 39
100 91 125 223 181 213 317 4 143 54 63 310 216 54 3 345 347 49 51 44 48 41 34 346 237 216 228 249 217 179 174 172 177 185 139 128 128 124 121 104 80 66 53 64 67 56 54 46 40
119 64 163 211 162 199 6 49 15 325 358 359 5 69 6 353 4 34 16 15 12 13 6 336 249 229 208 223 253 241 186 183 170 158 148 135 145 140 141 128 111 87 65 66 75 67 60 55 38
81 102 217 186 203 171 87 85 325 39 360 12 358 45 17 25 35 40 24 6 355 345 336 338 311 248 211 186 193 194 186 215 175 158 157 151 152 143 122 107 116 90 55 55 78 86 67 61 44
132 170 202 229 232 182 159 280 144 15 60 72 315 8 12 25 33 32 19 7 339 326 328 333 325 290 226 192 157 151 143 174 200 195 169 163 149 131 121 114 112 117 92 82 82 60 45 43 38
60 247 199 276 111 75 250 92 30 41 55 75 68 58 34 32 29 19 8 357 348 338 330 327 323 297 244 167 163 157 143 150 181 354 152 135 131 144 145 144 160 142 132 122 99 72 57 40 31
145 279 214 283 281 254 4 242 137 33 74 74 70 54 43 33 21 13 1 356 348 347 333 331 319 286 230 170 132 115 120 142 160 118 210 170 158 163 149 170 168 148 103 89 87 68 43 24 13
174 243 273 277 237 238 192 119 129 90 97 52 51 45 40 37 19 10 9 358 356 343 342 335 335 286 178 101 89 70 50 40 33 36 6 348 18 166 178 171 134 91 94 88 87 92 51 26 2
109 321 319 246 269 225 142 81 80 337 78 61 42 35 35 29 25 20 359 353 351 345 344 358 352 70 104 86 72 65 57 57 47 37 30 26 32 65 107 86 72 64 57 83 75 22 33 11 352
53 52 357 277 168 342 164 234 138 329 99 56 46 32 35 27 19 11 6 0 358 357 6 10 30 62 69 74 69 65 55 55 46 38 36 32 41 38 44 53 34 73 76 65 42 69 11 32 10
5 232 207 313 187 118 163 179 55 46 94 83 54 43 39 28 23 13 8 8 7 7 16 28 39 63 76 78 77 71 63 58 47 42 35 28 34 50 64 57 43 32 67 57 23 57 20 3 350
193 212 239 237 327 127 190 252 134 78 101 96 77 57 48 42 22 7 10 7 12 23 39 43 48 50 75 78 78 73 67 59 53 47 42 35 37 36 53 41 51 42 58 54 38 48 35 24 339
141 176 205 244 251 152 226 253 38 85 71 84 78 70 63 48 11 25 26 22 22 28 36 39 55 43 64 65 78 70 68 54 51 47 42 43 42 42 41 40 36 37 44 37 26 8 27 31 358
152 164 234 281 232 162 260 252 104 52 65 120 123 102 83 75 38 27 28 34 38 43 44 47 52 55 59 67 75 78 85 66 69 60 52 46 49 48 54 54 49 42 42 37 31 27 6 14 24
199 193 192 211 42 192 309 267 193 62 109 110 106 115 88 81 68 34 31 24 29 41 39 59 61 58 54 75 100 96 86 80 64 47 49 38 45 47 48 47 45 46 46 45 37 28 31 11 1
200 201 176 164 126 225 155 272 235 180 165 174 175 155 141 133 102 72 52 54 44 37 45 62 63 69 63 76 84 82 86 89 74 68 64 52 44 48 47 47 45 46 45 44 35 34 38 36 29
229 133 156 141 155 114 231 207 252 129 212 197 201 186 182 168 150 123 97 69 49 38 47 59 74 73 72 79 88 92 91 90 87 76 70 57 49 47 44 44 46 46 42 38 37 31 31 38 39
150 85 54 58 97 258 229 190 241 196 197 176 191 196 189 180 170 160 140 112 85 60 62 74 86 74 72 78 83 93 99 100 90 73 68 54 50 42 39 39 40 36 31 29 26 24 26 25 23
106 106 72 1 334 226 56 174 247 204 184 182 182 190 186 176 173 178 171 152 127 108 100 95 98 93 88 88 90 93 94 92 87 80 71 63 48 39 29 29 30 27 19 16 15 17 13 10 359
185 169 164 201 196 232 20 230 257 78 36 179 181 179 169 179 184 185 184 173 160 147 130 121 114 112 110 111 108 106 104 100 91 86 79 66 59 49 32 31 26 21 13 10 9 4 355 346 333
188 205 154 103 45 43 217 278 271 175 193 173 173 170 181 188 188 190 178 180 175 164 156 141 125 120 113 113 113 103 100 97 99 91 84 70 61 38 28 22 12 3 3 358 348 338 325 319 309
162 157 89 358 171 254 270 259 233 212 208 184 188 191 189 193 189 178 182 183 182 175 169 151 144 148 148 133 124 115 112 107 109 103 88 75 57 30 22 14 7 0 356 352 348 334 324 310 311
149 172 71 120 148 181 264 253 216 206 185 189 198 193 190 192 189 187 187 182 179 180 177 159 168 152 147 135 127 121 123 111 110 85 63 42 37 21 13 3 354 353 348 346 338 330 322 317 309
208 179 156 148 219 247 156 254 30 251 182 180 192 196 194 191 190 183 179 179 178 187 186 180 172 161 162 154 149 140 126 82 60 45 33 24 15 10 1 356 350 345 339 333 326 319 314 308 305